Regional Weather Roundup
Issued by NWS State College, PA

Home | Current Version | Previous Version | Graphics & Text | Print | Product List | Glossary On
Versions: 1 2 3 4 5 6 7 8 9 10 11 12 13 14 15 16 17 18 19 20 21 22 23 24 25 26 27 28 29 30 31 32 33 34 35 36 37 38 39 40 41 42 43 44 45 46 47 48 49 50
000
ASUS41 KCTP 280203
RWRCTP

REGIONAL WEATHER ROUNDUP
NATIONAL WEATHER SERVICE STATE COLLEGE PA
1000 PM EDT SAT AUG 27 2016

Note: "fair" indicates few or no clouds below 12,000 feet with no
significant weather and/or obstructions to visibility.

* = STATION THAT DOES NOT REPORT PRECIPITATION /E.G. RAIN...SNOW...ETC/
    THUNDER OR FOG.

PAZ002>004-007>009-013>016-020>023-029>032-280300-
WESTERN PENNSYLVANIA

CITY           SKY/WX    TMP DP  RH WIND       PRES   REMARKS
ERIE           MOCLDY    80  66  62 SE10      30.12F
MEADVILLE      PTCLDY    76  63  64 E3        30.17F
FRANKLIN*        N/A     72  64  78 E6        30.19F
NEW CASTLE     FAIR      79  69  71 SE5       30.16F
BEAVER COUNTY  NOT AVBL
BUTLER*        NOT AVBL
PITTSBURGH INT PTCLDY    80  68  66 CALM      30.16F
PITTSBURGH     CLEAR     81  67  62 E3        30.17S
INDIANA*       CLEAR     75  68  78 CALM      30.24R
LATROBE        CLEAR     73  72  94 W6        30.20R
WASHINGTON CO* PTCLDY    72  68  88 CALM      30.17F
$$

PAZ004>006-010>012-017>019-024>028-033>037-041-042-045-046-049>053-280300-
CENTRAL PENNSYLVANIA

CITY           SKY/WX    TMP DP  RH WIND       PRES   REMARKS
BRADFORD       CLEAR     66  66 100 SE3       30.25S
DUBOIS         CLEAR     73  65  75 E6        30.24R
CLEARFIELD     CLEAR     71  69  93 N7        30.24R
JOHNSTOWN      CLEAR     73  65  75 SE8       30.26S
ALTOONA        CLEAR     73  65  75 SW6       30.25R
STATE COLLEGE  CLEAR     74  66  75 CALM      30.23R
WILLIAMSPORT   CLEAR     72  66  81 NW3       30.20R
SELINSGROVE    CLEAR     69  69 100 CALM      30.20S
FT INDIANTOWN  CLEAR     70  65  84 N2        30.21R
CAPITAL CITY   CLEAR     77  67  71 CALM      30.20R
HARRISBURG     PTCLDY    78  69  73 CALM      30.19R
YORK           CLEAR     70  67  90 CALM      30.21R
$$

PAZ038>040-043-044-047-048-054-055-060>062-067>071-280300-
EASTERN PENNSYLVANIA

CITY           SKY/WX    TMP DP  RH WIND       PRES   REMARKS
SCRANTON       CLOUDY    71  64  78 E7        30.24R
MOUNT POCONO     N/A     63  60  90 CALM      30.29R
ALLENTOWN      CLEAR     80  60  50 CALM      30.23R
QUAKERTOWN*    CLEAR     72  63  73 CALM      30.24R
READING        CLEAR     76  66  71 CALM      30.20R
LANCASTER      CLEAR     76  68  76 NE3       30.21R
COATESVILLE    CLEAR     75  64  69 E6        30.24S
POTTSTOWN      CLEAR     76  60  57 CALM      30.24R
BLUE BELL      PTCLDY    66  63  88 CALM      30.22R
DOYLESTOWN     PTCLDY    71  65  81 CALM      30.22R
WILLOW GROVE   NOT AVBL
NORTH PHILA    PTCLDY    77  62  59 SE3       30.23R
PHILADELPHIA   MOCLDY    77  63  61 E7        30.22R
$$




USA.gov is the U.S. government's official web portal to all federal, state and local government web resources and services.